Sidney, NE

7:05 AM MST on November 20, 2017 (GMT -0700)
Sidney Municipal

Weather History for KSNY - April, 2012

Change the Weather History Date:

Friday, April 13, 2012

  Actual Average Record
Temperature  
Mean Temperature 55 °F 46 °F  
Max Temperature 65 °F 61 °F 83 °F (2006)
Min Temperature 44 °F 32 °F 6 °F (1997)
Degree Days  
Heating Degree Days 10 19  
Month to date heating degree days 183 267  
Since 1 July heating degree days 5236 5652  
Cooling Degree Days 0 0  
Month to date cooling degree days 0 0  
Year to date cooling degree days 0 0  
Growing Degree Days 4 (Base 50)    
Moisture  
Dew Point 31 °F    
Average Humidity 47    
Maximum Humidity 70    
Minimum Humidity 23    
Precipitation  
Precipitation T in 0.06 in 0.99 in (1967)
Month to date precipitation 0.08 0.73  
Year to date precipitation 0.60 2.35  
Sea Level Pressure  
Sea Level Pressure 29.72 in    
Wind  
Wind Speed 11 mph (WNW)    
Max Wind Speed 28 mph    
Max Gust Speed 35 mph    
Visibility 10 miles    
Events Rain    
T = Trace of Precipitation, MM = Missing Value Source: NWS Daily Summary

Daily Weather History Graph

Daily Weather History Graph

Search for Another Location

Airport or City:

Trip Planner

Search our weather history database for the weather conditions in past years. The results will help you decide how hot, cold, wet, or windy it might be!

Date:

Astronomy

Apr. 13, 2012 Rise Set
Actual Time 6:14 AM MDT 7:30 PM MDT
Civil Twilight 5:46 AM MDT 7:58 PM MDT
Nautical Twilight 5:12 AM MDT 8:33 PM MDT
Astronomical Twilight 4:36 AM MDT 9:09 PM MDT
Moon 2:04 AM MDT (4/13) 12:18 PM MDT (4/13)
Length of Visible Light 14h 12m
Length of Day
13h 15m
Waning Gibbous, 47% of the Moon is Illuminated
Apr 13
Waning Gibbous
Apr 21
New
Apr 29
First Quarter
May 5
Full
May 12
Last Quarter

Hourly Weather History & Observations

Time (MDT) Temp. Windchill Dew Point Humidity Pressure Visibility Wind Dir Wind Speed Gust Speed Precip Events Conditions
12:53 AM 50.0 °F - 34.0 °F 54% 29.65 in 10.0 mi West 10.4 mph - N/A   Overcast
1:53 AM 50.0 °F - 35.1 °F 57% 29.68 in 10.0 mi WNW 12.7 mph 21.9 mph 0.00 in Rain Light Rain
2:53 AM 50.0 °F - 34.0 °F 54% 29.68 in 10.0 mi West 10.4 mph - 0.00 in   Overcast
3:53 AM 46.9 °F - 35.1 °F 63% 29.67 in 10.0 mi WSW 9.2 mph - 0.00 in   Mostly Cloudy
4:53 AM 44.1 °F 39.0 °F 35.1 °F 71% 29.69 in 10.0 mi WSW 9.2 mph - N/A   Clear
5:53 AM 45.0 °F 39.3 °F 33.1 °F 63% 29.70 in 10.0 mi WNW 11.5 mph - N/A   Clear
6:53 AM 46.0 °F 40.6 °F 34.0 °F 63% 29.74 in 10.0 mi WNW 11.5 mph - N/A   Overcast
7:53 AM 48.0 °F - 35.1 °F 61% 29.78 in 10.0 mi WNW 11.5 mph - N/A   Overcast
8:53 AM 53.1 °F - 35.1 °F 50% 29.78 in 10.0 mi WNW 17.3 mph - N/A   Mostly Cloudy
9:53 AM 57.0 °F - 32.0 °F 39% 29.75 in 10.0 mi NW 20.7 mph 29.9 mph N/A   Partly Cloudy
10:53 AM 59.0 °F - 30.0 °F 33% 29.74 in 10.0 mi NW 26.5 mph 32.2 mph N/A   Partly Cloudy
11:53 AM 63.0 °F - 28.0 °F 27% 29.71 in 10.0 mi WNW 23.0 mph 31.1 mph N/A   Partly Cloudy
12:53 PM 64.0 °F - 28.9 °F 27% 29.70 in 10.0 mi WNW 24.2 mph 32.2 mph N/A   Scattered Clouds
1:53 PM 61.0 °F - 27.0 °F 27% 29.72 in 10.0 mi NW 18.4 mph 29.9 mph N/A   Scattered Clouds
3:53 PM 61.0 °F - 24.1 °F 24% 29.70 in 10.0 mi WNW 9.2 mph - N/A   Mostly Cloudy
4:53 PM 60.1 °F - 23.0 °F 24% 29.73 in 10.0 mi Variable 6.9 mph - N/A   Mostly Cloudy
5:53 PM 60.1 °F - 27.0 °F 28% 29.71 in 10.0 mi NW 5.8 mph - N/A   Clear
6:53 PM 55.9 °F - 30.0 °F 37% 29.73 in 10.0 mi Calm Calm - N/A   Clear
7:53 PM 50.0 °F - 33.1 °F 52% 29.76 in 10.0 mi SSE 4.6 mph - N/A   Mostly Cloudy
8:53 PM 53.1 °F - 27.0 °F 37% 29.73 in 10.0 mi East 3.5 mph - 0.00 in   Clear
9:53 PM 52.0 °F - 28.9 °F 41% 29.73 in 10.0 mi Variable 6.9 mph - N/A   Overcast
10:53 PM 54.0 °F - 30.0 °F 40% 29.70 in 10.0 mi SW 3.5 mph - N/A   Mostly Cloudy
11:53 PM 51.1 °F - 30.9 °F 46% 29.69 in 10.0 mi Variable 5.8 mph - N/A   Overcast